Cloud_Cover
34 10 5 5 5 5 5 5 21 96 100 100 42 100 100 100 100 100 95 95 100 100 94 100 55 8 5 15 94 5 5 100 50 96 31 5 5 6 7 5 64 99 100
0 8 5 5 5 5 5 5 5 43 100 100 100 100 100 100 100 100 94 100 100 100 99 100 100 81 23 12 5 5 16 12 9 9 7 62 5 16 75 8 23 44 91
2 3 4 77 6 5 5 5 5 5 5 88 97 98 100 100 100 100 100 100 100 100 100 100 90 100 35 5 5 70 7 9 5 5 52 64 5 5 66 35 30 5 54
0 0 4 66 66 5 5 5 5 5 5 5 5 98 100 100 100 100 100 100 100 100 100 100 100 100 63 34 5 62 17 78 15 5 18 5 6 5 5 5 70 75 5
0 3 3 77 79 5 5 5 4 4 3 2 5 32 83 71 100 100 100 100 100 100 100 100 89 100 100 100 35 5 5 5 5 5 5 5 5 5 5 42 48 19 5
8 52 0 16 64 5 5 5 0 0 0 0 5 0 5 5 19 100 100 100 100 100 100 100 100 100 100 21 100 5 5 5 5 5 18 14 5 16 8 5 6 7 5
5 4 67 98 5 5 5 5 0 4 5 5 5 5 3 5 13 39 100 100 100 100 100 100 99 100 100 64 100 9 5 9 5 32 6 9 5 58 100 5 5 5 7
26 68 46 60 0 3 5 5 5 0 0 0 0 16 91 12 30 99 62 93 100 100 100 100 99 100 100 100 100 100 5 5 8 26 60 20 65 94 99 5 8 5 5
15 11 1 0 0 0 0 0 0 0 0 4 8 3 5 5 13 100 100 91 100 100 59 100 100 100 100 85 100 100 7 25 5 60 53 20 5 5 77 100 42 8 25
21 4 0 0 0 4 0 0 4 5 73 100 97 100 53 5 5 100 100 100 56 100 100 75 100 100 100 100 100 100 91 29 52 86 46 33 13 100 100 100 98 10 94
2 5 0 0 16 3 2 5 73 100 90 93 100 100 70 4 0 66 96 100 99 100 100 99 71 100 100 100 100 100 99 8 65 65 77 98 54 76 100 100 100 72 100
7 2 0 0 2 56 88 100 100 100 100 92 91 93 18 6 0 3 28 100 100 100 100 100 87 100 100 73 100 100 91 51 94 94 100 89 100 100 100 100 100 50 82
75 1 0 0 2 22 100 100 100 100 92 14 73 32 100 43 13 93 60 100 86 97 90 100 96 100 100 78 100 100 84 54 66 94 97 58 100 100 92 100 100 16 63
22 0 0 0 0 1 100 100 100 92 100 100 100 100 100 100 100 87 15 63 43 93 96 100 42 98 100 100 100 100 100 100 100 98 100 100 100 100 100 100 100 69 94
0 0 0 0 0 0 71 100 100 100 100 100 100 89 76 100 97 2 3 5 5 53 90 100 93 100 100 100 98 100 100 100 100 100 100 100 100 92 84 100 100 74 25
0 0 4 0 0 0 0 100 100 100 100 100 100 100 100 58 5 0 2 5 5 70 100 100 86 100 100 100 89 100 100 100 100 100 100 100 93 89 98 100 100 61 87
4 0 0 0 0 0 1 74 100 100 11 100 100 100 91 55 5 5 4 4 31 100 90 97 52 100 100 100 100 100 100 100 100 100 100 100 100 72 100 100 100 95 100
7 62 0 0 0 0 0 0 61 96 100 100 100 68 97 79 5 5 2 5 36 81 50 100 96 78 100 100 100 100 100 100 100 100 82 100 100 89 95 100 100 100 100
5 15 12 9 0 0 0 2 7 27 49 34 100 100 50 4 4 1 8 2 67 58 94 100 100 62 100 99 99 100 100 100 100 100 100 80 78 100 100 100 100 100 99
37 76 55 8 2 0 0 5 2 5 21 36 15 73 5 11 4 7 4 0 53 91 100 100 97 51 100 81 100 100 100 100 100 100 100 100 100 100 99 100 100 100 88
6 0 0 100 5 65 11 62 20 25 16 33 94 7 28 4 5 34 8 5 13 83 100 100 100 100 94 99 100 100 100 100 70 100 100 100 100 100 100 100 100 100 100
85 24 58 55 9 18 1 4 0 5 7 32 85 86 70 71 13 4 6 22 6 9 83 100 100 86 38 78 86 100 100 100 100 92 100 100 100 86 98 100 95 100 100
100 31 5 67 52 4 0 3 31 8 46 44 36 99 85 100 99 0 5 27 59 21 68 100 100 71 82 56 80 98 100 100 100 100 100 100 91 100 100 100 100 100 100
100 100 19 100 100 100 0 5 0 0 14 12 44 49 41 85 72 21 5 56 64 76 40 84 100 98 96 97 100 100 95 100 100 100 98 100 100 100 100 100 100 100 100
66 100 100 100 100 58 5 1 0 2 3 31 47 6 5 5 5 18 6 64 100 99 100 100 99 100 100 99 100 100 100 100 100 100 100 100 100 97 100 100 100 100 100
83 100 100 93 87 5 4 1 0 5 11 7 5 12 20 6 9 5 23 9 90 92 98 100 100 99 100 100 100 100 100 100 100 100 100 100 100 100 100 100 100 100 100